Regional Weather Roundup
Issued by NWS

Home | Current Version | Previous Version | Graphics & Text | Print | Product List | Glossary On
Versions: 1 2 3 4 5 6 7 8 9 10 11 12 13 14 15 16 17 18 19 20 21 22 23 24 25 26 27 28 29 30 31 32 33 34 35 36 37 38 39 40 41 42 43 44 45 46 47 48 49 50
000
ASUS45 KTFX 061910
RWRMT
MONTANA REGIONAL WEATHER ROUNDUP
NATIONAL WEATHER SERVICE GREAT FALLS MT
1200 PM MST SAT FEB 06 2016

NOTE: "FAIR" INDICATES FEW OR NO CLOUDS BELOW 12000 FEET WITH NO
SIGNIFICANT WEATHER AND/OR OBSTRUCTIONS TO VISIBILITY.

MTZ001>007-043-062000-
WEST OF THE DIVIDE

CITY           SKY/WX    TMP DP  RH WIND       PRES   REMARKS
KALISPELL      MOSUNNY   39  25  57 SW20G26   30.16R WCI  29
MISSOULA       CLOUDY    38  25  59 W8        30.31R
BUTTE          LGT SNOW  31  23  72 NW14      30.20R WCI  21
MULLAN PASS    CLOUDY    23  21  92 VRB7      30.21R WCI  15
ANACONDA         N/A     36  18  48 SW25G36   30.21S WCI  23
DEER LODGE       N/A     36  12  38 W10G30    30.23S WCI  28
HAMILTON         N/A     43  19  39 S13G24    30.30R
LIBBY            N/A     43  18  36 W5        30.24
PLAINS           N/A     44  26  49 SW6       30.27R
THOMPSON FALLS   N/A     43  26  51 SW20      30.32R
$$

MTZ008-052>055-062000-
SOUTHWEST MONTANA

CITY           SKY/WX    TMP DP  RH WIND       PRES   REMARKS
BOZEMAN        CLOUDY    35  28  75 NW22      30.15R WCI  23
DILLON         CLOUDY    40  24  53 SW18G26   30.19R
ENNIS          PTSUNNY   39  18  41 S25G32    30.24F WCI  28
THREE FORKS      N/A     39  19  45 NW13      30.12R WCI  31
TWIN BRIDGES     N/A     43  19  38 SW15      30.16R
$$

MTZ009-010-012-014-046-048-049-054-062000-
EAST SLOPES AND CENTRAL MONTANA

CITY           SKY/WX    TMP DP  RH WIND       PRES   REMARKS
CUT BANK       MOSUNNY   41  14  33 W45G61    29.90R
GREAT FALLS    SUNNY     41  20  43 W46G56    29.97R
MALMSTROM AFB  SUNNY     42  19  40 W40G60    29.98R
HELENA         CLOUDY    40  20  44 W29G38    30.16R
CHOTEAU          N/A     41  14  33 W33G59    29.96R
CONRAD           N/A     43  15  32 SW41      29.92R
$$

MTZ011-013-016-021-045-047-050-051-062000-
NORTH CENTRAL MONTANA

CITY           SKY/WX    TMP DP  RH WIND       PRES   REMARKS
HAVRE          PTSUNNY   46  18  32 W51G61    29.82R
LEWISTOWN      SUNNY     41  16  36 W37G54    29.91R
N BAR RANCH      N/A     43   9  24 W28G40    29.91R
CHINOOK          N/A     48  18  29 W32G47    29.79R
$$

MTZ017>020-022>027-061-062-062000-
NORTHEAST MONTANA

CITY           SKY/WX    TMP DP  RH WIND       PRES   REMARKS
GLASGOW        SUNNY     43  29  57 W25G32    29.74S
JORDAN           N/A     46  26  45 W26G38    29.82S
SIDNEY         CLOUDY    52  27  37 W23G37    29.71F
WOLF POINT     MOSUNNY   45  29  53 W23G33    29.73R
PLENTYWOOD       N/A     45  28  53 W29G43    29.61F
POPLAR           N/A     46  28  49 W29G37    29.71F
SCOBEY           N/A     42  23  47 W31       29.64F
$$

MTZ028>42-056>058-062000-
SOUTHCENTRAL AND SOUTHEAST MONTANA

CITY           SKY/WX    TMP DP  RH WIND       PRES   REMARKS
BAKER          CLOUDY    49  20  31 W28G37    29.81F
BILLINGS       CLOUDY    45  21  38 NW35G49   29.97F
LIVINGSTON     CLOUDY    47  15  27 W37G55    30.02R
MILES CITY     SUNNY     52  25  35 NW31G49   29.85R
EKALAKA          N/A     49  18  29 W16       29.83F
FORSYTH          N/A     50  25  37 W23G32    29.89R
LAUREL           N/A     43  21  41 NW21      29.98R
ROUNDUP          N/A     47  14  26 MISG      29.85F
$$

REGIONAL REPORTS...DAKOTAS

CITY           SKY/WX    TMP DP  RH WIND       PRES   REMARKS
WILLISTON      CLOUDY    47  28  47 W20G28    29.66F
MINOT          CLOUDY    51  26  37 SW23G29   29.61F
DICKINSON      CLOUDY    48  22  35 W24G31    29.72F
BEACH            N/A     48  23  37 W25G33    29.78F
CROSBY         PTSUNNY   43  30  61 W9G21     29.62F
TIOGA          PTSUNNY   43  30  61 W23G32    29.67F
WATFORD CITY     N/A     48  28  46 W24G33    29.69F
BISMARCK       LGT RAIN  47  29  49 SW10      29.74F
GRAND FORKS    PTSUNNY   36  29  75 S13       29.68F WCI  27
FARGO          MOSUNNY   37  28  70 S14       29.75F WCI  28
BUFFALO SD       N/A     49  25  39 W17       29.78F
RAPID CITY     CLOUDY    45  28  51 S6        29.89F
$$

REGIONAL REPORTS...WYOMING/IDAHO/WASHINGTON

CITY           SKY/WX    TMP DP  RH WIND       PRES   REMARKS
GILLETTE       CLOUDY    40  23  50 SW29G36   29.89F
SHERIDAN       PTSUNNY   52  16  24 NW12      29.88F
BUFFALO WY     CLOUDY    52  17  25 CALM      29.91F
CODY           CLOUDY    50  14  23 NW15G28   30.03R
YELLOWSTONE LA   N/A     24  17  74 SW8       30.24F WCI  15
IDAHO FALLS    CLOUDY    21  18  88 CALM      30.43F
SALMON         CLOUDY    23  18  80 N8        30.31F WCI  14
BOISE          CLOUDY    40  31  70 NW6       30.47R
SPOKANE        CLOUDY    36  30  79 SW12      30.35R WCI  28
$$

REGIONAL REPORTS...ALBERTA

CITY           SKY/WX    TMP DP  RH WIND       PRES   REMARKS
EDMONTON       MOSUNNY   41  18  38 W21G40    29.64R
CALGARY        PTSUNNY   39  12  33 W26G37    29.81R WCI  28
LETHBRIDGE     PTSUNNY   43  14  31 W35G48    29.86R
MEDICINE HAT   CLOUDY    46  21  36 NW15G23   29.78R
WATERTON GATE    N/A     39   9  28 SW31G54     N/A  WCI  27
CARDSTON         N/A     43   9  24 W25G39      N/A
MILK RIVER       N/A     41  12  30 W39G49      N/A
ONEFOUR          N/A     43  19  39 W38G49      N/A
$$

REGIONAL REPORTS...SASKATCHEWAN

CITY           SKY/WX    TMP DP  RH WIND       PRES   REMARKS
SWIFT CURRENT  LGT RAIN  36  34  93 W28G41    29.58R WCI  23
REGINA         MOSUNNY   43  30  61 W24G36    29.48S
SASKATOON      PTSUNNY   39  28  65 NW28G35   29.40S WCI  28
VAL MARIE        N/A     45  23  42 W41G49      N/A
ROCKGLEN         N/A     41  28  60 W30G40      N/A
$$



USA.gov is the U.S. government's official web portal to all federal, state and local government web resources and services.